Flag for U.S.A. Weather past 2 weeks in Myrtle Beach, South Carolina, U.S.A.

73 °F


Feels Like: 77 °F
Forecast: 56 / 77 °F
Wind: 12 mph from Northeast

Location: Myrtle Beach Air Force Base

Current Time: Oct 7, 2015 at 12:48:01 PM

Latest Report: Oct 7, 2015 at 11:45 AM

Visibility: 10 mi

Pressure: 30.09 "Hg

Humidity: 53%

Dew point: 55 °F

Location of Myrtle BeachLocation

Historic Weather in Myrtle Beach — Graph


Myrtle Beach temperature yesterday

Maximum temperature yesterday: 66 °F (at 12:50 PM)
Minimum temperature yesterday: 57 °F (at 11:15 PM)
Average temperature yesterday: 62 °F

Past Weeks' High & Low Weather Summary

High86 °F (Sep 29, 1:50 PM)89% (Sep 25, 9:50 AM)30.10 "Hg (Sep 25, 9:50 AM)
Low55 °F (Oct 7, 4:15 AM)51% (Sep 22, 4:45 PM)29.61 "Hg (Oct 4, 4:35 AM)
Average72 °F78%29.91 "Hg
* Reported Sep 22 11:45 AM — Oct 7 11:45 AM, Myrtle Beach, Weather by CustomWeather, © 2015

Note: Actual official high and low records may vary slightly from our data, if they occured in-between our weather recording intervals... More about our weather records


Myrtle Beach weather history for previous 24 hours

Time TempWeatherWind HumidityBarometerVisibility
11:45 AM
Wed, Oct 7
73 °FSunny.12 mph53%30.09 "Hg10 mi
10:45 AM70 °FSunny.12 mph60%30.09 "Hg10 mi
9:48 AM66 °FSunny.12 mph64%30.07 "Hg10 mi
8:45 AM61 °FSunny.9 mph77%30.06 "Hg10 mi
7:50 AM57 °FClear.7 mph82%30.04 "Hg10 mi
6:45 AM57 °FPassing clouds.6 mph82%30.03 "Hg10 mi
5:55 AM57 °FClear.6 mph82%30.01 "Hg10 mi
5:35 AM57 °FClear.6 mph82%30.01 "Hg10 mi
5:15 AM57 °FClear.5 mph82%30.01 "Hg10 mi
4:55 AM57 °FClear.5 mph82%30.00 "Hg10 mi
4:35 AM57 °FClear.5 mph82%30.00 "Hg10 mi
4:15 AM55 °FClear.6 mph82%30.00 "Hg7 mi
3:55 AM57 °FClear.5 mph88%30.01 "Hg10 mi
3:35 AM57 °FClear.5 mph88%30.01 "Hg10 mi
3:15 AM57 °FClear.5 mph82%30.01 "Hg8 mi
2:55 AM57 °FClear.5 mph82%30.01 "Hg6 mi
2:35 AM57 °FClear.5 mph82%30.01 "Hg6 mi
2:15 AM57 °FClear.N/A82%30.01 "Hg10 mi
1:55 AM59 °FClear.3 mph82%30.01 "Hg10 mi
1:35 AM57 °FClear.No wind82%30.01 "Hg10 mi
1:15 AM61 °FClear.6 mph83%30.01 "Hg10 mi
12:55 AM57 °FClear.6 mph88%30.01 "Hg10 mi
12:35 AM57 °FClear.3 mph88%30.01 "Hg10 mi
11:55 PM
Tue, Oct 6
59 °FClear.3 mph82%30.01 "Hg10 mi
11:35 PM59 °FClear.3 mph82%30.01 "Hg10 mi
11:15 PM57 °FClear.No wind88%30.02 "Hg5 mi
10:55 PM59 °FClear.No wind82%30.01 "Hg9 mi
9:45 PM61 °FClear.6 mph77%30.02 "Hg10 mi
8:47 PM61 °FClear.7 mph83%30.01 "Hg10 mi
7:45 PM63 °FSunny.8 mph77%30.00 "Hg10 mi
6:45 PM66 °FOvercast.12 mph73%29.99 "Hg10 mi
5:45 PM66 °FOvercast.14 mph68%29.97 "Hg10 mi
4:53 PM66 °FOvercast.14 mph68%29.97 "Hg10 mi
3:45 PM66 °FOvercast.14 mph68%29.97 "Hg10 mi
2:45 PM66 °FOvercast.14 mph68%29.98 "Hg10 mi
1:50 PM66 °FOvercast.16 mph68%29.99 "Hg10 mi
12:50 PM66 °FOvercast.14 mph68%29.99 "Hg10 mi
Weather by CustomWeather, © 2015

See weather overviewHow to use our weather pages